[[{"header":{"parameterUnit":"m.s-1","parameterCategory":1,"la1":30.2991,"la2":30.254,"lo1":-89.0895,"lo2":-89.0444,"dy":0.0017,"dx":0.0017,"nx":28,"ny":28,"refTime":"2026-02-01T03:00:00:Z","depth":0,"parameterNumber":2,"parameterNumberName":"U-component_of_WINDS"},"data":[0,0,0,0,0,0,0,0,0,0,0,0,0,0,0,0,0,0,0,0,0,0,0,0,0,0,0,0,0,0,0,0,0,0,0,0,0,0,0,0,0,0,0,0,0,0,0,0,0,0,0,0,0,0,0,0,0,0,3.0029,3.003,0,3.0078,3.0079,3.008,3.0062,3.0061,3.006,3.0059,3.0109,3.0112,3.0114,0,0,0,0,0,0,0,0,0,0,0,0,0,2.992,2.9922,3.0029,3.003,3.003,3.0078,3.0079,3.008,3.0062,3.0061,3.0059,3.0058,3.0109,3.0111,3.0114,0,0,0,0,0,0,0,0,0,0,0,0,0,2.9968,2.9923,3.0029,3.0027,3.0028,3.0078,3.0079,3.008,3.0062,3.0061,3.0059,3.0057,3.0108,3.0111,3.0115,3.017,0,0,3.0126,3.0127,0,0,0,0,0,0,0,0,2.9966,2.9972,3.0027,3.0028,3.0028,3.0062,3.0059,3.011,3.0063,3.0049,3.0058,3.0057,3.0095,3.01,3.0113,3.0172,3.0175,3.0126,3.0128,3.013,3.0131,0,0,0,0,0,0,0,2.9962,2.997,3.0049,3.0028,3.0028,3.0024,3.0029,3.0069,3.0081,3.005,3.0049,3.0055,3.0095,3.0109,3.0114,3.0175,3.0126,3.0129,3.0131,3.0133,3.0283,3.0285,0,0,0,0,0,0,2.9959,2.9968,3.0047,3.005,2.9992,3.0028,3.0033,3.0053,3.008,3.0083,3.0056,3.0054,3.0104,3.0109,3.0115,3.0182,3.013,3.0133,3.0135,3.0282,3.0284,3.0286,0,0,0,0,0,0,2.9956,2.9966,3.0045,3.0009,3.0018,3.0031,3.0054,3.0055,3.0069,3.0085,3.0087,3.0069,3.0103,3.011,3.0157,3.0183,3.0135,3.0138,3.0279,3.0282,3.0285,3.0315,0,0,0,0,0,0,2.9953,2.9965,2.9986,3.0009,3.002,3.0085,3.0055,3.0057,3.0075,3.0072,3.0097,3.0099,3.0102,3.0151,3.016,3.0187,3.0141,3.0277,3.0281,3.0284,3.0312,3.0319,3.0325,0,0,0,0,0,2.995,2.9993,2.9987,2.9997,3.0047,3.0087,3.0093,3.0095,3.0077,3.0098,3.0109,3.0099,3.0179,3.0156,3.0166,3.0195,3.0275,3.028,3.0284,3.0309,3.0318,3.0325,0,0,0,0,0,0,2.9973,2.9996,2.999,3.0042,3.0063,3.0084,3.0111,3.0104,3.013,3.0127,3.0128,3.0134,3.0182,3.0193,3.0167,3.025,3.0225,3.0231,3.0241,3.0249,3.0255,3.0251,3.0144,0,0,0,0,0,2.9984,3.0015,3.0033,3.0077,3.0088,3.0098,3.0115,3.0115,3.0137,3.0145,3.0159,3.0181,3.0211,3.023,3.0259,3.0314,3.0319,3.0339,3.0345,3.035,3.0355,3.0385,3.0394,3.03,3.03,3.0299,0,0,3.0007,3.0024,3.0043,3.0082,3.0098,3.013,3.0105,3.014,3.0163,3.015,3.0195,3.0206,3.023,3.0281,3.0304,3.0292,3.0383,3.0355,3.0359,3.0362,3.039,3.0399,3.0407,3.0302,3.0302,3.0301,0,0,3.0066,3.0082,3.012,3.0137,3.0161,3.0168,3.0177,3.0199,3.0206,3.0251,3.0242,3.027,3.0322,3.034,3.0355,3.0421,3.0413,3.0431,3.0464,3.0493,3.05,3.0507,3.053,3.0538,3.0436,3.0436,3.0436,0,3.0092,3.0139,3.0141,3.0176,3.0194,3.0184,3.0223,3.0239,3.0272,3.0284,3.027,3.0335,3.0351,3.0405,3.0422,3.0435,3.0445,3.0428,3.0499,3.0506,3.0512,3.0534,3.0543,3.0438,3.0438,3.0438,3.0438,0,3.017,3.0203,3.0231,3.0263,3.0284,3.0321,3.0328,3.035,3.0348,3.0356,3.0401,3.042,3.0452,3.0465,3.0464,3.052,3.0511,3.0498,3.0473,3.0523,3.0544,3.0552,3.0441,3.044,3.044,3.0439,0,0,3.0244,3.0276,3.0287,3.0301,3.0328,3.0354,3.0391,3.0422,3.044,3.0463,3.0494,3.0538,3.0527,3.0544,3.0545,3.0571,3.0622,3.0554,3.0555,3.0566,3.0685,3.0694,3.0704,3.0616,3.0618,3.0619,3.0682,0,3.0304,3.0369,3.0372,3.0431,3.0461,3.0452,3.0485,3.0505,3.0513,3.0541,3.055,3.0581,3.0563,3.0574,3.0599,3.061,3.0645,3.0606,3.0645,3.0646,3.0639,3.0715,3.0724,3.0783,3.0691,3.0692,3.0693,0,3.0383,3.0409,3.0471,3.0494,3.0507,3.0536,3.0565,3.0591,3.0614,3.0618,3.0638,3.0635,3.0673,3.0647,3.0699,3.0672,3.0689,3.0696,3.0699,3.0702,3.0672,3.0719,3.0802,3.081,3.0706,3.0705,3.0704,0,3.0431,3.0481,3.0525,3.0537,3.0565,3.0585,3.0598,3.0619,3.0638,3.0663,3.0675,3.0705,3.0721,3.0745,3.075,3.073,3.0802,3.0776,3.0807,3.0807,3.0822,3.082,3.0907,3.0833,3.0833,3.0833,3.0833,0,3.0498,3.0536,3.0546,3.0573,3.0616,3.0619,3.0661,3.0672,3.0691,3.0719,3.0714,3.0741,3.0747,3.0775,3.0779,3.0822,3.0829,3.0834,3.0835,3.0834,3.0833,3.0844,3.084,3.0835,3.0835,3.0834,3.0834,0,3.0558,3.0566,3.0613,3.0635,3.0642,3.0672,3.0691,3.0717,3.0725,3.0762,3.0771,3.0783,3.0817,3.0824,3.0864,3.0867,3.0917,3.0914,3.0909,3.0909,3.0938,3.0935,3.1035,3.1048,3.0966,3.0967,3.0967,0,3.06,3.0629,3.0654,3.0673,3.0687,3.0717,3.0737,3.0741,3.0761,3.0789,3.0812,3.0844,3.087,3.0924,3.0937,3.0967,3.0964,3.0997,3.0969,3.0967,3.0964,3.0962,3.0965,3.1002,3.1003,3.1004,3.1004,0,3.0673,3.0676,3.0704,3.0733,3.0756,3.078,3.0802,3.0818,3.0826,3.0849,3.0883,3.0903,3.0943,3.0976,3.1006,3.1019,3.1013,3.1013,3.1022,3.1021,3.1017,3.1019,3.0923,3.1011,3.101,3.101,3.1009,3.1009,3.0725,3.075,3.0772,3.0804,3.0821,3.0842,3.0868,3.0879,3.0907,3.094,3.0941,3.0978,3.1001,3.1041,3.1055,3.1084,3.1074,3.1087,3.109,3.1093,3.1095,3.1013,3.109,3.109,3.109,3.109,3.1089,0,3.0797,3.0811,3.084,3.0872,3.0897,3.0889,3.0914,3.0935,3.0967,3.0989,3.1015,3.1053,3.1085,3.11,3.1132,3.1152,3.115,3.116,3.1158,3.1161,3.1102,3.1092,3.1161,3.1161,3.1161,3.1161,3.1161,3.1161,3.0838,3.0881,3.0886,3.0938,3.0952,3.0988,3.1002,3.1022,3.1039,3.1082,3.1108,3.1118,3.1137,3.117,3.1199,3.1202,3.1214,3.1225,3.1227,3.1172,3.1165,3.1158,3.1148,3.1228,3.1228,3.1283,3.1284,3.1284]},{"header":{"parameterUnit":"m.s-1","parameterCategory":1,"la1":30.2991,"la2":30.254,"lo1":-89.0895,"lo2":-89.0444,"dy":0.0017,"dx":0.0017,"nx":28,"ny":28,"refTime":"2026-02-01T03:00:00:Z","depth":0,"parameterNumber":3,"parameterNumberName":"V-component_of_WINDS"},"data":[0,0,0,0,0,0,0,0,0,0,0,0,0,0,0,0,0,0,0,0,0,0,0,0,0,0,0,0,0,0,0,0,0,0,0,0,0,0,0,0,0,0,0,0,0,0,0,0,0,0,0,0,0,0,0,0,0,0,1.4861,1.486,0,1.482,1.4819,1.4819,1.4794,1.4794,1.4794,1.4794,1.475,1.4749,1.4748,0,0,0,0,0,0,0,0,0,0,0,0,0,1.4915,1.4914,1.4861,1.486,1.486,1.482,1.4819,1.4819,1.4794,1.4794,1.4794,1.4794,1.475,1.4749,1.4748,0,0,0,0,0,0,0,0,0,0,0,0,0,1.4884,1.4913,1.4861,1.4843,1.4841,1.482,1.4819,1.4819,1.4794,1.4794,1.4794,1.4793,1.4751,1.4749,1.4747,1.4741,0,0,1.4743,1.4742,0,0,0,0,0,0,0,0,1.4886,1.4882,1.4846,1.4844,1.4842,1.4812,1.4822,1.4793,1.4794,1.4812,1.4794,1.4793,1.477,1.4767,1.476,1.4739,1.4737,1.4742,1.4742,1.4741,1.474,0,0,0,0,0,0,0,1.4888,1.4884,1.4845,1.4845,1.4843,1.4835,1.4831,1.4816,1.4792,1.481,1.4808,1.4804,1.4769,1.4761,1.4759,1.4737,1.4743,1.4741,1.474,1.474,1.4706,1.4706,0,0,0,0,0,0,1.4893,1.4886,1.4846,1.4843,1.4864,1.4835,1.483,1.4822,1.4793,1.4788,1.4804,1.4803,1.4764,1.4761,1.4757,1.4746,1.4741,1.4739,1.4738,1.4706,1.4706,1.4706,0,0,0,0,0,0,1.4895,1.489,1.4848,1.4864,1.4858,1.4834,1.4825,1.4821,1.4813,1.4788,1.4783,1.4801,1.4764,1.4759,1.4745,1.4745,1.4739,1.4737,1.4706,1.4706,1.4706,1.4726,0,0,0,0,0,0,1.4896,1.4891,1.4889,1.4864,1.4857,1.4837,1.4825,1.482,1.4811,1.4809,1.4784,1.4779,1.4763,1.4747,1.4743,1.4742,1.4736,1.4706,1.4706,1.4706,1.4725,1.4727,1.4728,0,0,0,0,0,1.4898,1.4896,1.4889,1.4884,1.4855,1.4837,1.4833,1.4816,1.4811,1.4808,1.4792,1.478,1.4745,1.4746,1.4741,1.474,1.4706,1.4706,1.4706,1.4725,1.4727,1.4728,0,0,0,0,0,0,1.4922,1.4893,1.4884,1.4875,1.4859,1.4833,1.483,1.4818,1.4803,1.4802,1.478,1.4774,1.4762,1.4749,1.4751,1.4731,1.4724,1.4723,1.474,1.4741,1.4743,1.4746,1.4735,0,0,0,0,0,1.4926,1.4915,1.489,1.4883,1.4876,1.4854,1.4846,1.4833,1.4816,1.4809,1.4791,1.4774,1.4759,1.4749,1.4734,1.4723,1.4716,1.472,1.4721,1.4722,1.4722,1.4713,1.4714,1.4707,1.4707,1.4707,0,0,1.4934,1.4917,1.4911,1.4887,1.4874,1.4862,1.4849,1.4837,1.4827,1.4807,1.4792,1.4778,1.4757,1.4744,1.4738,1.4733,1.4722,1.4723,1.4724,1.4722,1.4713,1.4714,1.4714,1.4707,1.4707,1.4707,0,0,1.4942,1.4929,1.4921,1.4907,1.4887,1.4872,1.487,1.4846,1.4836,1.4821,1.4805,1.4792,1.4768,1.4753,1.4742,1.4742,1.4731,1.4738,1.4745,1.4737,1.4737,1.4738,1.4737,1.4737,1.4738,1.4738,1.4738,0,1.4955,1.4937,1.4918,1.4907,1.4897,1.4877,1.4869,1.4856,1.4831,1.4824,1.4819,1.4786,1.4771,1.4753,1.4753,1.4745,1.4741,1.4741,1.4739,1.4739,1.4739,1.4738,1.4738,1.4739,1.4739,1.4738,1.4738,0,1.4952,1.494,1.4936,1.4913,1.4902,1.4892,1.4871,1.4861,1.4849,1.4835,1.4818,1.4799,1.4779,1.4774,1.4762,1.4753,1.4751,1.4743,1.4736,1.4741,1.4739,1.4739,1.474,1.474,1.4739,1.4739,0,0,1.4975,1.4941,1.494,1.4928,1.4903,1.4892,1.4881,1.4861,1.4853,1.4836,1.4824,1.4803,1.4795,1.4782,1.4769,1.4761,1.4761,1.4754,1.4753,1.4755,1.4748,1.4754,1.4754,1.4753,1.4753,1.4753,1.475,0,1.4979,1.4958,1.4941,1.4926,1.4913,1.4894,1.4883,1.4866,1.4851,1.4838,1.4821,1.4806,1.4797,1.4789,1.4781,1.4763,1.4759,1.4763,1.4741,1.474,1.4746,1.4753,1.476,1.4758,1.4749,1.4749,1.4749,0,1.4981,1.4965,1.4949,1.4924,1.4918,1.4909,1.4888,1.4876,1.4855,1.4845,1.483,1.4816,1.4801,1.4795,1.4773,1.4775,1.4765,1.4755,1.4754,1.4751,1.4745,1.475,1.4757,1.4757,1.4748,1.4748,1.4748,0,1.4998,1.4972,1.4959,1.4949,1.492,1.4914,1.4901,1.488,1.4869,1.485,1.4843,1.4823,1.4812,1.4796,1.4776,1.4773,1.4755,1.4748,1.4745,1.4745,1.4742,1.4742,1.4747,1.4736,1.4736,1.4736,1.4736,0,1.5004,1.4994,1.4965,1.4957,1.4945,1.4924,1.4913,1.4898,1.4879,1.4867,1.4849,1.4837,1.4811,1.4796,1.478,1.4763,1.4758,1.4749,1.4744,1.475,1.4751,1.4743,1.4742,1.4736,1.4736,1.4736,1.4736,0,1.502,1.5001,1.4985,1.4958,1.4951,1.4943,1.4919,1.491,1.4894,1.4878,1.4873,1.4847,1.4828,1.4806,1.478,1.4769,1.4753,1.4747,1.476,1.4758,1.4755,1.4756,1.4755,1.4753,1.4744,1.4744,1.4744,0,1.5025,1.5018,1.499,1.498,1.4968,1.4953,1.4941,1.492,1.4908,1.4883,1.4876,1.4855,1.4838,1.4807,1.4786,1.4765,1.4758,1.4759,1.4754,1.476,1.4756,1.4757,1.4755,1.476,1.476,1.476,1.476,0,1.5035,1.5026,1.501,1.4991,1.4977,1.4961,1.4944,1.4937,1.4911,1.4898,1.4879,1.4865,1.4838,1.4817,1.4793,1.4778,1.4764,1.4762,1.476,1.4765,1.4773,1.4767,1.4763,1.4762,1.4762,1.4762,1.4762,1.4762,1.5045,1.5037,1.5016,1.4999,1.4983,1.4967,1.4956,1.4939,1.4922,1.4899,1.4887,1.4867,1.4844,1.481,1.4796,1.4779,1.4774,1.4772,1.4771,1.477,1.4771,1.4776,1.4774,1.4774,1.4774,1.4774,1.4774,0,1.5054,1.5039,1.5023,1.4999,1.4985,1.4974,1.4954,1.4943,1.4926,1.4906,1.4889,1.4865,1.4844,1.4821,1.4798,1.4789,1.4782,1.4783,1.4784,1.478,1.4777,1.4781,1.4789,1.4789,1.4789,1.4789,1.4789,1.4789,1.5056,1.5041,1.5029,1.5005,1.499,1.4971,1.496,1.4944,1.4928,1.4903,1.4886,1.4871,1.4849,1.4824,1.4804,1.4797,1.4789,1.4793,1.4784,1.4782,1.4781,1.4779,1.4782,1.4791,1.4791,1.4788,1.4788,1.4788]}]]